ENY3453 KMIA-MYGF

Flight info

Callsign ENY3453
Flight time 0h 23m
Altitude 15000
Route FOLZZ3 PADUS
Aircraft E75L/M-SDE3GILORVW/S

Departure

Time 2026-04-21 19:51
Airport Miami International Airport (KMIA)

Arrival

Time 2026-04-21 20:14
Airport Grand Bahama International Airport (MYGF)
Time Latitude Longitude Altitude Speed Heading
2026-04-21 19:32 25.79713 -80.28483 17 ft 0 kts 28°
2026-04-21 19:42 25.79704 -80.28489 18 ft 2 kts 28°
2026-04-21 19:42 25.79689 -80.28497 18 ft 2 kts 28°
2026-04-21 19:43 25.79675 -80.28506 16 ft 2 kts 28°
2026-04-21 19:43 25.79661 -80.28514 17 ft 2 kts 28°
2026-04-21 19:43 25.79652 -80.28520 17 ft 0 kts 28°
2026-04-21 19:44 25.79654 -80.28520 17 ft 0 kts 15°
2026-04-21 19:44 25.79656 -80.28521 17 ft 1 kts 340°
2026-04-21 19:45 25.79660 -80.28531 18 ft 4 kts 282°
2026-04-21 19:45 25.79653 -80.28600 17 ft 14 kts 265°
2026-04-21 19:45 25.79643 -80.28718 18 ft 17 kts 265°
2026-04-21 19:45 25.79694 -80.28812 18 ft 17 kts 358°
2026-04-21 19:46 25.79814 -80.28817 19 ft 18 kts 358°
2026-04-21 19:46 25.79942 -80.28823 21 ft 19 kts 359°
2026-04-21 19:46 25.80013 -80.28864 20 ft 11 kts 273°
2026-04-21 19:46 25.80008 -80.28981 18 ft 20 kts 267°
2026-04-21 19:47 25.80002 -80.29160 19 ft 25 kts 268°
2026-04-21 19:47 25.79994 -80.29366 15 ft 29 kts 268°
2026-04-21 19:47 25.79985 -80.29604 12 ft 32 kts 267°
2026-04-21 19:47 25.79976 -80.29798 11 ft 24 kts 267°
2026-04-21 19:48 25.79973 -80.29935 9 ft 8 kts 276°
2026-04-21 19:48 25.79977 -80.29957 9 ft 0 kts 285°
2026-04-21 19:50 25.79978 -80.29961 9 ft 4 kts 285°
2026-04-21 19:50 25.80003 -80.30062 11 ft 13 kts 285°
2026-04-21 19:50 25.80056 -80.30123 14 ft 10 kts 19°
2026-04-21 19:50 25.80077 -80.30033 11 ft 28 kts 88°
2026-04-21 19:51 25.80100 -80.29467 13 ft 116 kts 87°
2026-04-21 19:51 25.80155 -80.28340 356 ft 165 kts 85°
2026-04-21 19:51 25.80205 -80.26962 1061 ft 190 kts 85°
2026-04-21 19:51 25.80139 -80.25529 2291 ft 189 kts 98°
2026-04-21 19:52 25.79583 -80.24097 3126 ft 211 kts 111°
2026-04-21 19:52 25.78901 -80.22609 4086 ft 230 kts 113°
2026-04-21 19:52 25.78123 -80.20923 4300 ft 261 kts 115°
2026-04-21 19:52 25.77267 -80.19103 5476 ft 267 kts 114°
2026-04-21 19:53 25.76433 -80.17261 6610 ft 258 kts 115°
2026-04-21 19:53 25.75611 -80.15550 6567 ft 245 kts 117°
2026-04-21 19:53 25.74803 -80.13940 6626 ft 233 kts 116°
2026-04-21 19:53 25.74232 -80.12333 6568 ft 223 kts 97°
2026-04-21 19:54 25.74298 -80.10660 6499 ft 215 kts 72°
2026-04-21 19:54 25.74956 -80.09217 6455 ft 207 kts 50°
2026-04-21 19:54 25.75881 -80.08007 6439 ft 205 kts 48°
2026-04-21 19:54 25.76821 -80.06819 6440 ft 204 kts 48°
2026-04-21 19:55 25.77757 -80.05639 6431 ft 203 kts 48°
2026-04-21 19:55 25.78316 -80.04931 6434 ft 202 kts 48°
2026-04-21 19:55 25.79042 -80.04010 6447 ft 204 kts 48°
2026-04-21 19:56 25.80011 -80.02784 6535 ft 226 kts 48°
2026-04-21 19:56 25.81088 -80.01379 7180 ft 250 kts 49°
2026-04-21 19:56 25.82224 -79.99837 7876 ft 273 kts 49°
2026-04-21 19:56 25.83482 -79.98153 8576 ft 292 kts 48°
2026-04-21 19:57 25.84808 -79.96390 9578 ft 302 kts 47°
2026-04-21 19:57 25.86175 -79.94567 10451 ft 317 kts 47°
2026-04-21 19:57 25.87636 -79.92650 11209 ft 330 kts 47°
2026-04-21 19:57 25.89135 -79.90684 12244 ft 336 kts 47°
2026-04-21 19:58 25.90657 -79.88691 13312 ft 341 kts 47°
2026-04-21 19:58 25.92201 -79.86672 14342 ft 345 kts 46°
2026-04-21 19:58 25.93760 -79.84639 14857 ft 347 kts 45°
2026-04-21 19:58 25.95382 -79.82601 15071 ft 364 kts 44°
2026-04-21 19:59 25.97111 -79.80479 15058 ft 374 kts 45°
2026-04-21 19:59 25.98879 -79.78315 15053 ft 380 kts 44°
2026-04-21 19:59 26.00048 -79.76865 14999 ft 381 kts 44°
2026-04-21 19:59 26.02384 -79.73957 14975 ft 381 kts 45°
2026-04-21 20:00 26.03576 -79.72477 14990 ft 381 kts 45°
2026-04-21 20:00 26.05923 -79.69570 14988 ft 381 kts 44°
2026-04-21 20:00 26.07698 -79.67380 14996 ft 381 kts 45°
2026-04-21 20:00 26.08873 -79.65932 14998 ft 380 kts 45°
2026-04-21 20:01 26.10626 -79.63725 14998 ft 381 kts 49°
2026-04-21 20:01 26.12205 -79.61351 14999 ft 382 kts 52°
2026-04-21 20:01 26.13732 -79.58930 14995 ft 381 kts 52°
2026-04-21 20:01 26.15249 -79.56512 14998 ft 381 kts 52°
2026-04-21 20:02 26.16775 -79.54094 15001 ft 381 kts 52°
2026-04-21 20:02 26.18303 -79.51684 15002 ft 381 kts 52°
2026-04-21 20:02 26.19824 -79.49281 15002 ft 380 kts 52°
2026-04-21 20:02 26.21351 -79.46868 15003 ft 380 kts 52°
2026-04-21 20:03 26.22870 -79.44464 15001 ft 380 kts 52°
2026-04-21 20:03 26.24388 -79.42059 14991 ft 379 kts 52°
2026-04-21 20:03 26.25907 -79.39659 14995 ft 379 kts 52°
2026-04-21 20:03 26.27428 -79.37255 14995 ft 379 kts 52°
2026-04-21 20:04 26.28906 -79.34822 14957 ft 376 kts 58°
2026-04-21 20:04 26.29872 -79.32179 14757 ft 361 kts 70°
2026-04-21 20:04 26.30503 -79.29570 14512 ft 347 kts 73°
2026-04-21 20:04 26.31105 -79.27017 14267 ft 333 kts 72°
2026-04-21 20:05 26.31725 -79.24574 14030 ft 321 kts 71°
2026-04-21 20:05 26.32345 -79.22221 13671 ft 313 kts 71°
2026-04-21 20:05 26.32962 -79.19910 12836 ft 308 kts 71°
2026-04-21 20:05 26.33572 -79.17646 12083 ft 302 kts 70°
2026-04-21 20:06 26.34179 -79.15414 11361 ft 299 kts 70°
2026-04-21 20:06 26.34777 -79.13205 10649 ft 297 kts 71°
2026-04-21 20:06 26.35368 -79.11011 9927 ft 293 kts 71°
2026-04-21 20:06 26.36106 -79.08922 9155 ft 288 kts 60°
2026-04-21 20:07 26.37112 -79.07016 8412 ft 284 kts 56°
2026-04-21 20:07 26.38135 -79.05156 7678 ft 280 kts 57°
2026-04-21 20:07 26.39112 -79.03289 6955 ft 277 kts 58°
2026-04-21 20:07 26.40054 -79.01439 6224 ft 272 kts 59°
2026-04-21 20:08 26.40968 -78.99609 5480 ft 267 kts 60°
2026-04-21 20:08 26.41845 -78.97835 4750 ft 261 kts 61°
2026-04-21 20:08 26.42720 -78.96063 3976 ft 255 kts 61°
2026-04-21 20:08 26.43571 -78.94334 3590 ft 252 kts 62°
2026-04-21 20:09 26.44404 -78.92637 3238 ft 248 kts 61°
2026-04-21 20:09 26.45227 -78.90961 2861 ft 245 kts 62°
2026-04-21 20:09 26.46040 -78.89303 2478 ft 242 kts 61°
2026-04-21 20:09 26.46845 -78.87663 2099 ft 240 kts 61°
2026-04-21 20:10 26.47637 -78.86079 1969 ft 229 kts 61°
2026-04-21 20:10 26.48386 -78.84582 1982 ft 214 kts 61°
2026-04-21 20:10 26.49092 -78.83168 1944 ft 203 kts 60°
2026-04-21 20:10 26.49749 -78.81850 1908 ft 184 kts 62°
2026-04-21 20:11 26.50342 -78.80664 2015 ft 164 kts 62°
2026-04-21 20:11 26.50868 -78.79607 1984 ft 151 kts 60°
2026-04-21 20:11 26.51363 -78.78612 1774 ft 140 kts 60°
2026-04-21 20:11 26.51833 -78.77680 1609 ft 135 kts 62°
2026-04-21 20:12 26.52288 -78.76786 1457 ft 130 kts 62°
2026-04-21 20:12 26.52704 -78.75891 1197 ft 128 kts 63°
2026-04-21 20:12 26.53107 -78.75001 1038 ft 131 kts 63°
2026-04-21 20:12 26.53546 -78.74108 910 ft 129 kts 59°
2026-04-21 20:13 26.54014 -78.73248 731 ft 131 kts 58°
2026-04-21 20:13 26.54472 -78.72351 481 ft 133 kts 61°
2026-04-21 20:13 26.54905 -78.71470 219 ft 125 kts 60°
2026-04-21 20:13 26.55335 -78.70624 36 ft 123 kts 60°
2026-04-21 20:14 26.55711 -78.69871 22 ft 98 kts 61°
2026-04-21 20:14 26.55975 -78.69340 23 ft 59 kts 60°
2026-04-21 20:14 26.56132 -78.69027 23 ft 34 kts 60°
2026-04-21 20:14 26.56211 -78.68856 20 ft 18 kts 87°
2026-04-21 20:15 26.56126 -78.68789 21 ft 16 kts 199°
2026-04-21 20:15 26.56058 -78.68897 22 ft 18 kts 239°
2026-04-21 20:15 26.55991 -78.69030 22 ft 21 kts 242°
2026-04-21 20:15 26.55914 -78.69182 23 ft 24 kts 240°
2026-04-21 20:16 26.55830 -78.69352 22 ft 26 kts 241°
2026-04-21 20:16 26.55713 -78.69516 23 ft 28 kts 221°
2026-04-21 20:16 26.55559 -78.69667 24 ft 31 kts 219°
2026-04-21 20:16 26.55394 -78.69826 22 ft 33 kts 220°
2026-04-21 20:17 26.55217 -78.69999 22 ft 35 kts 221°
2026-04-21 20:17 26.55028 -78.70180 22 ft 37 kts 219°
2026-04-21 20:17 26.54894 -78.70253 22 ft 19 kts 184°
2026-04-21 20:17 26.54817 -78.70261 22 ft 0 kts 224°
2026-04-21 20:18 26.54817 -78.70264 22 ft 1 kts 246°
2026-04-21 20:18 26.54817 -78.70269 22 ft 0 kts 271°